Time,TemperatureF,DewpointF,PressureIn,WindDirection,WindDirectionDegrees,WindSpeedMPH,WindSpeedGustMPH,Humidity,HourlyPrecipIn,Conditions,Clouds,dailyrainin,SoftwareType,DateUTC
2013-06-19 00:08:00,64.7,63.0,29.87,NE,53,1.0,4.0,95,0.00,,,0.00,weatherlink.com 1.10,2013-06-19 04:08:00,
2013-06-19 00:23:00,64.5,63.0,29.87,ENE,77,0.0,3.0,95,0.00,,,0.00,weatherlink.com 1.10,2013-06-19 04:23:00,
2013-06-19 00:38:00,64.0,62.0,29.86,ESE,102,2.0,7.0,94,0.00,,,0.00,weatherlink.com 1.10,2013-06-19 04:38:00,
2013-06-19 00:53:00,63.6,62.0,29.87,WNW,298,1.0,3.0,94,0.00,,,0.00,weatherlink.com 1.10,2013-06-19 04:53:00,
2013-06-19 01:08:00,63.6,62.0,29.86,NE,52,0.0,4.0,94,0.00,,,0.00,weatherlink.com 1.10,2013-06-19 05:08:00,
2013-06-19 01:23:00,63.4,62.0,29.87,SE,124,1.0,6.0,94,0.00,,,0.00,weatherlink.com 1.10,2013-06-19 05:23:00,
2013-06-19 01:38:00,63.4,62.0,29.87,ESE,117,2.0,4.0,94,0.00,,,0.00,weatherlink.com 1.10,2013-06-19 05:38:00,
2013-06-19 01:53:00,63.3,62.0,29.87,NW,319,1.0,4.0,95,0.01,,,0.01,weatherlink.com 1.10,2013-06-19 05:53:00,
2013-06-19 02:08:00,62.6,61.0,29.87,East,91,1.0,8.0,94,0.01,,,0.01,weatherlink.com 1.10,2013-06-19 06:08:00,
2013-06-19 02:23:00,62.3,61.0,29.87,NW,312,3.0,5.0,95,0.01,,,0.01,weatherlink.com 1.10,2013-06-19 06:23:00,
2013-06-19 02:38:00,62.1,61.0,29.87,ENE,68,1.0,5.0,95,0.01,,,0.01,weatherlink.com 1.10,2013-06-19 06:38:00,
2013-06-19 02:53:00,61.9,61.0,29.87,ENE,57,3.0,9.0,95,0.00,,,0.01,weatherlink.com 1.10,2013-06-19 06:53:00,
2013-06-19 03:08:00,61.6,60.0,29.88,NW,304,0.0,3.0,95,0.00,,,0.01,weatherlink.com 1.10,2013-06-19 07:08:00,
2013-06-19 03:23:00,61.2,60.0,29.88,NE,55,3.0,8.0,94,0.00,,,0.01,weatherlink.com 1.10,2013-06-19 07:23:00,
2013-06-19 03:38:00,61.1,59.0,29.88,NW,322,1.0,4.0,94,0.00,,,0.01,weatherlink.com 1.10,2013-06-19 07:38:00,
2013-06-19 03:53:00,60.8,59.0,29.88,ESE,105,3.0,4.0,93,0.00,,,0.01,weatherlink.com 1.10,2013-06-19 07:53:00,
2013-06-19 04:08:00,60.3,58.0,29.88,North,11,0.0,4.0,93,0.00,,,0.01,weatherlink.com 1.10,2013-06-19 08:08:00,
2013-06-19 04:24:00,59.6,57.0,29.89,NW,304,3.0,8.0,92,0.00,,,0.01,weatherlink.com 1.10,2013-06-19 08:24:00,
2013-06-19 04:39:00,59.3,57.0,29.90,ENE,57,0.0,4.0,92,0.00,,,0.01,weatherlink.com 1.10,2013-06-19 08:39:00,
2013-06-19 04:54:00,58.9,57.0,29.90,WNW,297,1.0,4.0,92,0.00,,,0.01,weatherlink.com 1.10,2013-06-19 08:54:00,
2013-06-19 05:09:00,58.5,56.0,29.91,NW,321,1.0,4.0,92,0.00,,,0.01,weatherlink.com 1.10,2013-06-19 09:09:00,
2013-06-19 05:24:00,58.2,56.0,29.91,NE,34,1.0,3.0,91,0.00,,,0.01,weatherlink.com 1.10,2013-06-19 09:24:00,
2013-06-19 05:39:00,57.8,55.0,29.91,NE,44,0.0,2.0,91,0.00,,,0.01,weatherlink.com 1.10,2013-06-19 09:39:00,
2013-06-19 05:54:00,57.6,55.0,29.91,NE,41,0.0,4.0,91,0.00,,,0.01,weatherlink.com 1.10,2013-06-19 09:54:00,
2013-06-19 06:09:00,57.9,55.0,29.92,NW,314,0.0,4.0,91,0.00,,,0.01,weatherlink.com 1.10,2013-06-19 10:09:00,
2013-06-19 06:24:00,58.5,56.0,29.92,West,266,0.0,3.0,92,0.00,,,0.01,weatherlink.com 1.10,2013-06-19 10:24:00,
2013-06-19 06:39:00,59.6,57.0,29.93,NNE,32,2.0,4.0,90,0.00,,,0.01,weatherlink.com 1.10,2013-06-19 10:39:00,
2013-06-19 06:54:00,60.4,57.0,29.93,ENE,66,0.0,7.0,88,0.00,,,0.01,weatherlink.com 1.10,2013-06-19 10:54:00,
2013-06-19 07:09:00,60.9,57.0,29.94,ENE,76,1.0,7.0,87,0.00,,,0.01,weatherlink.com 1.10,2013-06-19 11:09:00,
2013-06-19 07:24:00,61.3,57.0,29.95,WSW,255,1.0,9.0,84,0.00,,,0.01,weatherlink.com 1.10,2013-06-19 11:24:00,
2013-06-19 07:39:00,62.1,56.0,29.96,NE,53,3.0,7.0,81,0.00,,,0.01,weatherlink.com 1.10,2013-06-19 11:39:00,
2013-06-19 07:54:00,62.5,55.0,29.98,NE,49,2.0,10.0,77,0.00,,,0.01,weatherlink.com 1.10,2013-06-19 11:54:00,
2013-06-19 08:09:00,63.1,55.0,29.98,ENE,63,2.0,8.0,75,0.00,,,0.01,weatherlink.com 1.10,2013-06-19 12:09:00,
2013-06-19 08:24:00,64.4,55.0,29.99,East,80,4.0,6.0,72,0.00,,,0.01,weatherlink.com 1.10,2013-06-19 12:24:00,
2013-06-19 08:39:00,65.1,54.0,30.00,South,179,3.0,7.0,68,0.00,,,0.01,weatherlink.com 1.10,2013-06-19 12:39:00,
2013-06-19 08:54:00,67.3,55.0,30.00,ENE,70,2.0,4.0,65,0.00,,,0.01,weatherlink.com 1.10,2013-06-19 12:54:00,
2013-06-19 09:09:00,67.1,53.0,30.00,East,98,0.0,9.0,62,0.00,,,0.01,weatherlink.com 1.10,2013-06-19 13:09:00,
2013-06-19 09:24:00,67.8,55.0,30.00,NNW,342,2.0,7.0,63,0.00,,,0.01,weatherlink.com 1.10,2013-06-19 13:24:00,
2013-06-19 09:39:00,68.2,53.0,30.00,NE,51,3.0,11.0,58,0.00,,,0.01,weatherlink.com 1.10,2013-06-19 13:39:00,
2013-06-19 09:54:00,69.4,54.0,30.02,NW,319,5.0,6.0,58,0.00,,,0.01,weatherlink.com 1.10,2013-06-19 13:54:00,
2013-06-19 10:09:00,69.2,53.0,30.02,North,349,2.0,8.0,57,0.00,,,0.01,weatherlink.com 1.10,2013-06-19 14:09:00,
2013-06-19 10:24:00,69.4,54.0,30.02,NNW,342,2.0,8.0,58,0.00,,,0.01,weatherlink.com 1.10,2013-06-19 14:24:00,
2013-06-19 10:39:00,69.8,52.0,30.02,North,354,3.0,7.0,53,0.00,,,0.01,weatherlink.com 1.10,2013-06-19 14:39:00,
2013-06-19 10:55:00,70.6,53.0,30.02,East,101,1.0,7.0,54,0.00,,,0.01,weatherlink.com 1.10,2013-06-19 14:55:00,
2013-06-19 11:10:00,71.8,53.0,30.02,SSE,153,2.0,10.0,52,0.00,,,0.01,weatherlink.com 1.10,2013-06-19 15:10:00,
2013-06-19 11:25:00,72.6,53.0,30.03,ENE,76,5.0,7.0,51,0.00,,,0.01,weatherlink.com 1.10,2013-06-19 15:25:00,
2013-06-19 11:40:00,73.5,53.0,30.03,WNW,298,1.0,6.0,49,0.00,,,0.01,weatherlink.com 1.10,2013-06-19 15:40:00,
2013-06-19 11:55:00,74.2,51.0,30.03,NE,36,2.0,5.0,44,0.00,,,0.01,weatherlink.com 1.10,2013-06-19 15:55:00,
2013-06-19 12:10:00,73.9,51.0,30.03,ENE,70,6.0,8.0,44,0.00,,,0.01,weatherlink.com 1.10,2013-06-19 16:10:00,
2013-06-19 12:25:00,74.6,51.0,30.03,NNE,23,7.0,7.0,43,0.00,,,0.01,weatherlink.com 1.10,2013-06-19 16:25:00,
2013-06-19 12:40:00,74.5,48.0,30.03,NE,51,6.0,7.0,39,0.00,,,0.01,weatherlink.com 1.10,2013-06-19 16:40:00,
2013-06-19 12:55:00,74.8,49.0,30.03,NNW,335,2.0,7.0,41,0.00,,,0.01,weatherlink.com 1.10,2013-06-19 16:55:00,
2013-06-19 13:10:00,74.8,51.0,30.03,WNW,298,3.0,6.0,43,0.00,,,0.01,weatherlink.com 1.10,2013-06-19 17:10:00,
2013-06-19 13:25:00,75.9,52.0,30.03,NNW,330,2.0,7.0,43,0.00,,,0.01,weatherlink.com 1.10,2013-06-19 17:25:00,
2013-06-19 13:40:00,77.4,52.0,30.04,North,6,3.0,5.0,42,0.00,,,0.01,weatherlink.com 1.10,2013-06-19 17:40:00,
2013-06-19 13:55:00,77.2,52.0,30.03,SW,235,1.0,5.0,41,0.00,,,0.01,weatherlink.com 1.10,2013-06-19 17:55:00,
2013-06-19 14:10:00,76.0,50.0,30.04,WSW,246,2.0,6.0,40,0.00,,,0.01,weatherlink.com 1.10,2013-06-19 18:10:00,
2013-06-19 14:25:00,74.8,49.0,30.04,SSW,205,1.0,7.0,41,0.00,,,0.01,weatherlink.com 1.10,2013-06-19 18:25:00,
2013-06-19 14:40:00,75.8,50.0,30.04,ESE,110,2.0,8.0,41,0.00,,,0.01,weatherlink.com 1.10,2013-06-19 18:40:00,
2013-06-19 14:55:00,77.3,52.0,30.04,ENE,78,2.0,6.0,41,0.00,,,0.01,weatherlink.com 1.10,2013-06-19 18:55:00,
2013-06-19 15:10:00,77.9,52.0,30.04,West,276,2.0,6.0,41,0.00,,,0.01,weatherlink.com 1.10,2013-06-19 19:10:00,
2013-06-19 15:25:00,77.6,51.0,30.05,East,89,1.0,5.0,40,0.00,,,0.01,weatherlink.com 1.10,2013-06-19 19:25:00,
2013-06-19 15:40:00,77.2,51.0,30.05,ENE,77,1.0,6.0,40,0.00,,,0.01,weatherlink.com 1.10,2013-06-19 19:40:00,
2013-06-19 15:55:00,76.7,51.0,30.05,NW,314,1.0,5.0,41,0.00,,,0.01,weatherlink.com 1.10,2013-06-19 19:55:00,
2013-06-19 16:10:00,77.2,50.0,30.05,West,266,5.0,7.0,38,0.00,,,0.01,weatherlink.com 1.10,2013-06-19 20:10:00,
2013-06-19 16:25:00,77.1,51.0,30.05,SW,218,1.0,3.0,40,0.00,,,0.01,weatherlink.com 1.10,2013-06-19 20:25:00,
2013-06-19 16:40:00,77.7,50.0,30.05,WSW,246,0.0,7.0,38,0.00,,,0.01,weatherlink.com 1.10,2013-06-19 20:40:00,
2013-06-19 16:55:00,77.2,49.0,30.04,SW,215,0.0,5.0,37,0.00,,,0.01,weatherlink.com 1.10,2013-06-19 20:55:00,
2013-06-19 17:10:00,77.1,47.0,30.04,West,259,0.0,5.0,34,0.00,,,0.01,weatherlink.com 1.10,2013-06-19 21:10:00,
2013-06-19 17:25:00,77.4,47.0,30.04,SSW,210,3.0,5.0,34,0.00,,,0.01,weatherlink.com 1.10,2013-06-19 21:25:00,
2013-06-19 17:55:00,76.3,48.0,30.05,West,269,0.0,5.0,37,0.00,,,0.01,weatherlink.com 1.10,2013-06-19 21:55:00,
2013-06-19 18:10:00,77.0,47.0,30.05,WSW,252,1.0,4.0,34,0.00,,,0.01,weatherlink.com 1.10,2013-06-19 22:10:00,
2013-06-19 18:25:00,77.2,47.0,30.05,West,269,1.0,2.0,34,0.00,,,0.01,weatherlink.com 1.10,2013-06-19 22:25:00,
2013-06-19 18:40:00,77.4,45.0,30.05,ENE,76,0.0,1.0,32,0.00,,,0.01,weatherlink.com 1.10,2013-06-19 22:40:00,
2013-06-19 18:55:00,76.4,46.0,30.06,WNW,300,0.0,2.0,34,0.00,,,0.01,weatherlink.com 1.10,2013-06-19 22:55:00,
2013-06-19 19:10:00,76.1,45.0,30.06,West,259,0.0,1.0,33,0.00,,,0.01,weatherlink.com 1.10,2013-06-19 23:10:00,
2013-06-19 19:25:00,73.3,51.0,30.07,ESE,113,0.0,4.0,46,0.00,,,0.01,weatherlink.com 1.10,2013-06-19 23:25:00,
2013-06-19 19:40:00,71.4,52.0,30.07,SW,235,1.0,5.0,50,0.00,,,0.01,weatherlink.com 1.10,2013-06-19 23:40:00,
2013-06-19 19:55:00,70.1,54.0,30.08,SW,233,1.0,5.0,56,0.00,,,0.01,weatherlink.com 1.10,2013-06-19 23:55:00,
2013-06-19 20:10:00,68.9,56.0,30.09,WSW,249,2.0,4.0,63,0.00,,,0.01,weatherlink.com 1.10,2013-06-20 00:10:00,
2013-06-19 20:25:00,67.4,58.0,30.09,West,279,1.0,5.0,71,0.00,,,0.01,weatherlink.com 1.10,2013-06-20 00:25:00,
2013-06-19 20:40:00,66.2,57.0,30.10,WSW,255,0.0,5.0,73,0.00,,,0.01,weatherlink.com 1.10,2013-06-20 00:40:00,
2013-06-19 20:56:00,65.5,57.0,30.10,West,260,1.0,6.0,74,0.00,,,0.01,weatherlink.com 1.10,2013-06-20 00:56:00,
2013-06-19 21:11:00,65.0,57.0,30.11,WSW,248,1.0,4.0,75,0.00,,,0.01,weatherlink.com 1.10,2013-06-20 01:11:00,
2013-06-19 21:26:00,64.6,57.0,30.11,WSW,243,0.0,4.0,75,0.00,,,0.01,weatherlink.com 1.10,2013-06-20 01:26:00,
2013-06-19 21:41:00,64.4,56.0,30.12,WSW,240,1.0,3.0,74,0.00,,,0.01,weatherlink.com 1.10,2013-06-20 01:41:00,
2013-06-19 21:56:00,64.1,56.0,30.13,WSW,243,0.0,3.0,74,0.00,,,0.01,weatherlink.com 1.10,2013-06-20 01:56:00,
2013-06-19 22:11:00,63.9,55.0,30.13,SW,223,1.0,2.0,74,0.00,,,0.01,weatherlink.com 1.10,2013-06-20 02:11:00,
2013-06-19 22:26:00,63.6,56.0,30.13,West,259,1.0,1.0,76,0.00,,,0.01,weatherlink.com 1.10,2013-06-20 02:26:00,
2013-06-19 22:41:00,63.5,56.0,30.14,WNW,286,0.0,4.0,77,0.00,,,0.01,weatherlink.com 1.10,2013-06-20 02:41:00,
2013-06-19 22:56:00,63.2,56.0,30.14,SSE,166,2.0,4.0,77,0.00,,,0.01,weatherlink.com 1.10,2013-06-20 02:56:00,
2013-06-19 23:11:00,63.2,56.0,30.15,SW,236,0.0,2.0,76,0.00,,,0.01,weatherlink.com 1.10,2013-06-20 03:11:00,
2013-06-19 23:26:00,62.9,55.0,30.15,SW,232,0.0,2.0,76,0.00,,,0.01,weatherlink.com 1.10,2013-06-20 03:26:00,
2013-06-19 23:41:00,62.4,55.0,30.16,SW,219,0.0,1.0,77,0.00,,,0.01,weatherlink.com 1.10,2013-06-20 03:41:00,
2013-06-19 23:56:00,61.8,55.0,30.16,South,184,0.0,1.0,78,0.00,,,0.01,weatherlink.com 1.10,2013-06-20 03:56:00,